Dewpoint
54 53 52 52 52 51 51 51 51 50 50 49 48 47 46 46 45 45 44 45 45 45 44 44 43 43 43 44 45 45 45 45 46 46 47 47 48 47 47 46 46 45 45 43 42 41 40 39 38 37 34 26
54 54 53 52 52 51 51 51 50 50 49 48 48 48 47 46 46 46 45 45 44 45 43 43 43 43 43 44 45 46 46 46 46 46 46 47 47 47 46 45 45 44 44 42 41 39 38 38 36 36 33 22
52 54 53 53 52 52 51 51 51 50 49 49 48 48 47 47 46 46 46 45 45 45 44 43 43 44 45 45 46 45 46 46 45 44 44 44 45 46 45 43 42 42 42 41 39 38 36 35 34 33 27 21
51 53 53 53 53 52 52 51 51 50 50 49 48 47 46 46 45 45 44 46 44 45 43 43 43 43 44 46 46 45 46 45 44 43 42 42 42 43 43 42 41 40 40 39 37 36 34 33 31 18 18 19
51 51 53 53 53 52 51 51 50 49 48 47 47 47 46 44 38 37 36 37 40 43 39 42 43 42 43 44 44 45 44 44 43 42 41 40 39 37 36 36 37 38 38 36 35 33 32 30 17 18 18 18
49 50 50 48 49 48 49 50 49 47 44 46 43 45 39 35 35 33 35 37 41 37 38 37 40 40 42 43 42 43 43 42 42 41 40 38 37 35 33 32 18 21 34 33 32 31 30 17 17 18 18 16
48 48 46 46 45 46 48 46 44 42 42 39 38 34 33 34 32 32 34 34 35 37 40 37 38 38 40 42 41 40 41 40 40 40 39 37 35 33 32 21 20 20 16 20 29 28 18 16 17 17 16 17
46 45 44 44 44 43 43 41 40 39 37 34 30 30 31 30 32 33 31 38 39 39 34 38 38 37 36 35 35 33 32 37 37 38 35 32 32 32 27 18 20 21 19 16 15 15 16 16 16 17 16 17
44 43 42 41 41 40 39 37 37 36 34 29 27 28 28 29 32 30 33 34 31 26 24 21 20 21 22 24 26 28 18 18 23 20 17 18 24 19 20 19 21 19 16 20 16 15 16 16 16 15 17 15
43 41 40 39 37 36 35 35 34 33 31 28 27 27 28 31 29 31 33 31 27 23 22 20 20 20 20 21 23 27 16 17 16 16 17 17 19 18 18 17 19 23 24 16 16 16 17 16 15 15 15 15
41 39 39 38 36 34 32 32 31 31 29 28 28 28 31 28 28 30 30 28 24 22 21 19 19 18 19 17 18 21 16 16 17 16 16 16 17 18 17 17 18 19 19 20 16 16 16 16 14 15 15 15
39 37 36 35 37 33 33 31 30 29 28 29 28 29 30 30 28 27 27 25 22 22 21 19 18 18 17 17 19 21 16 15 15 16 17 16 16 16 18 17 17 16 17 18 16 15 15 15 13 13 13 15
37 35 35 35 34 31 36 29 29 28 28 28 28 29 31 30 27 25 25 23 21 22 20 20 18 16 16 16 18 18 16 15 14 14 15 16 16 16 16 18 16 15 16 17 16 13 14 14 13 13 13 14
35 34 33 33 33 30 36 29 28 29 28 27 28 29 30 29 27 25 23 22 22 20 20 18 17 17 15 14 16 16 14 18 14 14 15 16 16 14 15 17 23 13 13 15 18 15 13 13 13 14 14 14
33 33 32 33 32 31 33 30 30 29 27 27 27 28 30 29 29 25 23 22 22 20 19 17 16 15 15 14 16 14 14 21 15 15 13 13 12 12 13 15 18 13 12 14 14 18 13 13 13 12 13 14
32 31 31 33 32 30 33 31 29 29 27 29 26 28 29 28 27 28 23 23 21 19 18 16 15 15 14 13 15 15 15 21 18 16 18 18 17 17 15 17 18 17 11 12 14 14 14 13 13 12 14 14
32 31 31 32 32 31 33 30 29 28 27 26 26 27 28 27 27 27 23 23 22 27 17 16 15 14 16 13 13 15 16 20 18 18 18 19 20 16 15 14 17 19 13 12 13 14 15 13 13 13 15 15
32 31 30 31 31 32 32 29 29 29 27 27 26 26 26 26 26 26 23 22 22 21 17 15 14 13 14 13 14 16 18 14 13 11 11 16 17 22 14 12 16 10 7 13 15 15 16 14 14 14 15 14
32 31 31 31 31 30 31 29 28 28 27 26 26 26 24 25 26 25 23 23 22 20 16 15 14 13 13 13 14 15 15 12 11 10 10 17 14 15 13 14 22 11 10 12 8 12 18 12 14 18 14 16
32 31 30 30 33 30 31 29 28 27 26 26 26 26 24 23 25 24 22 22 22 19 16 14 13 13 13 14 14 13 13 13 10 10 13 18 10 8 11 15 10 16 8 14 13 17 16 14 18 15 14 14
32 31 30 30 30 29 30 28 27 27 26 26 25 25 24 23 24 24 22 22 21 18 16 15 13 13 13 15 11 11 12 12 13 11 13 16 17 7 8 13 7 13 13 13 18 15 15 14 16 13 13 13
31 31 30 30 30 31 29 28 27 26 26 25 25 25 24 23 24 24 21 21 21 18 17 15 14 13 12 14 11 10 11 10 13 11 11 9 16 9 10 11 6 8 12 15 14 14 13 12 11 10 11 12
31 31 30 29 28 28 28 28 27 26 25 25 24 24 24 23 22 25 21 21 21 17 18 15 14 13 12 13 10 9 10 10 13 11 10 8 10 16 9 8 6 7 12 13 14 13 12 12 12 11 11 18
31 30 30 28 28 27 28 27 27 26 25 24 24 24 24 23 21 24 21 20 20 17 18 15 14 13 13 12 9 9 8 8 10 9 8 7 7 11 14 17 12 13 16 12 8 12 14 11 9 7 11 14
30 29 29 29 28 27 27 27 26 25 25 24 23 24 24 23 21 23 22 21 20 17 20 16 14 12 12 12 10 8 7 7 8 9 7 8 15 9 7 10 13 13 11 1 -4 6 7 9 10 22 20 17
30 29 29 29 28 27 27 27 27 25 24 24 24 24 23 23 22 22 21 22 19 18 17 16 14 12 12 11 10 9 9 8 18 14 9 6 7 14 5 -0 10 10 1 -6 -11 -14 -11 4 9 17 12 13
30 29 30 29 29 28 28 27 27 26 26 25 23 23 23 23 22 21 21 21 21 18 17 16 14 12 12 11 12 10 8 9 9 10 8 6 0 6 9 4 11 9 1 -7 -1 -4 -0 -7 -9 0 -0 8
31 30 29 29 29 28 28 26 27 26 25 24 23 22 22 22 22 21 20 20 20 19 17 16 14 13 11 10 11 9 6 6 6 9 7 6 4 1 2 3 4 10 7 -4 -2 0 2 7 -4 -1 1 -8
30 29 28 27 24 25 24 23 25 24 24 23 23 22 21 21 22 22 21 20 19 20 17 16 15 13 11 10 9 9 5 4 4 7 7 5 3 0 -5 -3 -2 8 8 2 2 8 3 -3 -3 6 3 -2
29 29 27 25 25 23 23 23 22 23 24 23 22 22 21 21 22 22 21 20 19 19 19 16 15 13 12 11 10 10 5 3 4 5 6 5 2 -1 -2 -4 -3 -4 10 7 5 5 5 11 14 8 -4 -1
28 27 26 25 25 25 24 24 24 24 24 25 23 23 21 20 20 21 20 19 19 18 19 17 15 13 12 11 9 12 7 3 2 3 6 7 4 -2 3 -2 -2 -3 -2 6 5 4 3 6 4 3 -1 2